Wind_Speed
76 76 75 74 73 71 69 67 66 61 53 50 50 48 46 42 38 33 30 29 33 45 59 70 80 90 99 106 115 122 126 127 126 123 118 113 107 101
75 74 73 72 70 68 66 64 63 61 54 49 48 46 44 41 37 33 29 28 31 42 57 68 78 89 97 104 113 121 126 127 126 124 120 115 110 104
73 72 70 70 68 66 63 61 60 58 54 48 47 45 43 40 36 33 29 27 28 39 54 67 77 88 96 102 110 120 126 127 126 125 121 117 112 106
71 70 68 68 65 63 61 58 57 55 52 47 44 43 42 40 36 32 29 26 26 34 50 64 75 86 95 100 108 118 125 127 127 125 121 118 113 109
69 68 66 66 63 61 58 56 55 53 50 47 43 42 40 39 35 31 28 25 24 29 43 60 72 84 94 99 106 116 123 126 126 125 122 118 115 110
67 66 64 63 62 59 56 54 53 50 47 45 43 41 39 38 35 31 27 24 23 25 36 53 68 80 92 98 104 113 122 125 126 124 121 118 115 110
65 63 62 61 60 58 56 53 52 49 46 44 42 40 39 37 35 31 26 22 21 22 30 46 62 76 89 97 103 111 119 125 126 125 121 118 115 111
63 61 60 59 58 55 54 52 51 48 45 43 41 40 38 36 34 30 25 21 19 20 26 38 54 69 83 94 101 108 117 123 126 125 122 118 115 112
61 60 58 57 56 53 51 50 48 46 43 42 41 39 37 36 33 28 24 19 17 18 22 32 47 60 76 89 98 106 115 121 124 124 122 119 116 113
59 58 56 55 54 52 49 48 47 44 41 40 39 38 36 34 31 26 22 18 16 16 20 29 40 53 67 82 93 101 111 119 123 123 122 119 117 114
57 57 55 53 52 50 49 47 45 42 39 38 38 36 35 33 29 25 19 16 14 15 19 27 36 46 59 73 86 96 106 115 121 122 122 120 117 115
55 54 53 52 50 49 47 46 44 40 37 35 35 34 33 31 27 23 18 14 13 15 20 27 34 43 53 66 78 90 101 111 118 121 121 120 119 116
53 52 51 50 49 47 46 45 43 39 35 34 33 32 31 29 26 21 16 13 13 16 21 27 33 41 49 59 72 84 95 106 115 119 120 120 119 117
51 50 49 48 47 45 44 43 42 38 35 33 32 30 29 27 24 19 14 11 12 16 21 27 33 39 47 54 64 77 88 100 111 117 119 120 120 117
50 49 48 47 45 44 43 41 40 37 34 32 30 28 28 25 22 18 13 9 12 16 22 27 33 39 45 52 59 70 82 94 106 114 119 120 119 118
48 48 47 46 44 42 41 40 38 36 33 31 29 27 26 23 20 16 11 8 11 17 22 27 32 38 44 50 57 65 76 88 101 111 116 119 119 118
46 46 45 44 43 41 40 38 37 35 33 30 28 26 24 22 18 15 10 7 10 17 23 28 32 37 43 48 54 61 71 82 95 106 114 118 118 117
44 44 43 42 41 40 38 37 35 34 31 29 26 24 22 20 17 13 9 6 9 15 22 28 32 36 41 45 51 58 66 76 89 101 111 116 118 117
43 42 41 40 40 39 37 35 34 32 29 27 25 22 20 18 15 12 9 6 9 15 20 27 31 35 39 43 49 56 64 73 84 96 107 114 115 115
41 41 40 39 38 37 36 34 32 30 27 26 24 21 18 16 15 12 8 4 7 13 19 24 29 34 38 43 48 54 62 70 80 90 102 109 113 113
39 39 38 38 37 36 35 32 30 28 26 24 22 18 16 15 13 11 6 2 6 12 17 22 26 31 36 41 46 53 60 68 76 86 97 105 111 113
37 37 37 36 36 35 33 31 29 27 24 22 20 16 14 13 11 9 5 1 5 11 15 19 23 27 32 37 43 51 59 66 74 83 93 102 107 111
35 35 35 35 34 34 32 30 27 25 23 21 18 15 13 11 9 7 4 1 4 9 13 17 21 24 29 35 41 49 58 65 73 80 88 95 101 105
Wind_Direction
325 326 327 327 328 328 328 328 329 331 333 328 325 322 320 317 310 302 289 269 244 223 212 208 206 205 205 203 203 202 202 201 201 200 201 201 201 200
325 327 327 328 329 328 328 328 329 329 332 331 328 325 323 320 313 304 292 275 249 226 212 207 205 204 203 202 202 202 201 200 200 200 200 200 200 200
325 327 328 329 329 329 329 329 329 329 331 332 329 327 325 322 318 307 296 280 255 230 215 208 205 204 202 201 201 201 200 199 199 199 199 199 199 199
326 327 328 329 330 330 329 329 329 329 330 332 331 328 326 323 320 312 299 284 261 235 218 210 206 203 202 201 201 201 200 199 198 198 199 199 199 199
326 328 329 330 331 330 330 330 330 330 330 331 332 329 327 324 322 315 303 288 268 241 222 212 207 204 202 201 201 200 199 198 198 198 198 199 199 199
326 329 330 330 331 331 331 330 331 331 330 331 332 331 328 325 323 318 306 290 272 246 225 214 208 205 202 201 201 200 199 198 197 197 197 198 199 198
326 329 330 330 331 332 332 332 332 332 331 331 332 331 329 327 324 319 310 294 275 250 226 215 210 206 203 202 201 200 199 197 197 197 197 198 198 199
327 329 330 331 332 332 333 332 332 332 331 332 332 331 330 328 325 320 311 297 276 251 227 214 210 207 205 203 202 201 199 197 196 196 196 197 198 199
327 329 331 331 332 333 334 333 333 332 331 331 332 332 331 329 326 321 311 297 275 250 226 211 208 206 206 204 203 201 199 198 196 196 196 196 198 198
327 330 331 332 333 333 335 334 334 332 331 330 331 332 330 328 327 322 311 294 271 247 222 208 204 203 205 205 204 203 200 198 196 195 196 196 197 198
327 330 332 333 333 333 335 336 335 333 330 330 331 332 332 330 327 323 311 291 265 239 217 204 200 199 201 203 204 203 201 199 197 196 196 196 197 198
327 330 331 332 333 334 335 336 336 334 331 329 330 331 332 332 328 323 312 289 258 231 212 203 197 195 197 200 202 203 202 199 197 196 196 196 197 198
327 330 332 333 334 334 336 336 337 335 333 331 331 331 332 333 330 323 311 284 251 224 209 201 195 192 194 197 200 202 201 200 198 196 196 196 197 198
327 330 332 333 334 335 336 337 337 336 334 333 333 333 333 334 332 326 312 277 242 219 205 199 194 191 190 192 197 200 201 200 198 197 196 196 197 198
327 330 332 334 335 335 336 337 338 337 336 335 334 333 334 334 334 329 315 274 234 213 202 198 194 190 188 189 193 197 199 200 199 198 197 197 197 198
327 330 332 334 335 335 336 337 339 339 337 336 335 335 335 336 335 332 318 276 230 210 202 198 195 190 188 189 191 194 198 200 199 198 197 197 197 198
327 330 332 334 335 336 336 337 339 339 339 338 337 335 335 336 335 332 320 280 226 209 202 199 195 192 190 189 190 192 196 198 199 199 198 197 197 198
327 329 332 334 335 336 337 337 338 340 340 340 339 338 337 338 337 333 320 276 228 209 202 199 196 193 191 190 190 191 194 197 199 199 198 197 197 198
327 329 332 334 336 337 337 338 339 340 341 342 342 342 341 344 344 339 324 277 225 208 202 199 196 194 192 191 191 191 192 195 197 199 199 198 197 198
326 329 331 334 336 337 338 338 339 340 341 342 344 344 345 346 348 346 336 284 215 202 198 197 196 195 194 193 192 191 191 193 196 197 198 198 198 198
326 328 331 334 336 337 338 339 339 340 341 343 343 345 346 347 348 350 345 287 202 195 195 195 195 196 196 194 192 191 190 191 194 196 197 198 198 199
325 328 331 333 336 338 339 339 340 341 342 344 345 346 347 347 347 349 349 307 192 191 194 195 194 194 194 193 192 191 189 189 191 194 196 198 199 199
325 328 330 333 336 338 339 340 341 342 343 344 346 347 347 350 350 351 359 52 170 180 184 186 187 190 192 193 192 191 189 188 189 191 194 197 198 199
Height
5490 5474 5457 5440 5423 5406 5390 5374 5360 5350 5344 5329 5315 5303 5292 5284 5277 5271 5267 5265 5264 5268 5276 5289 5304 5322 5342 5364 5390 5417 5445 5474 5504 5534 5563 5590 5614 5637
5478 5462 5445 5429 5413 5397 5381 5367 5352 5338 5331 5322 5308 5297 5285 5277 5269 5263 5259 5256 5256 5259 5266 5277 5291 5308 5328 5350 5374 5401 5429 5459 5489 5518 5547 5573 5599 5623
5466 5451 5435 5419 5403 5388 5373 5359 5345 5331 5321 5314 5301 5290 5280 5271 5263 5257 5252 5249 5248 5250 5256 5266 5280 5296 5316 5338 5361 5387 5414 5444 5474 5503 5532 5559 5585 5609
5455 5440 5424 5409 5394 5379 5365 5351 5338 5325 5313 5306 5296 5285 5275 5265 5258 5251 5246 5242 5241 5242 5248 5257 5270 5286 5305 5326 5349 5374 5402 5431 5460 5490 5519 5546 5571 5594
5445 5430 5415 5399 5385 5371 5357 5344 5332 5319 5308 5298 5290 5280 5270 5261 5253 5246 5240 5237 5235 5235 5240 5249 5262 5277 5296 5316 5339 5363 5391 5420 5450 5479 5506 5533 5558 5582
5434 5420 5405 5391 5377 5364 5351 5338 5325 5314 5303 5293 5284 5275 5266 5257 5248 5242 5236 5232 5229 5230 5233 5241 5254 5269 5287 5307 5329 5353 5380 5408 5437 5467 5495 5522 5548 5571
5424 5410 5396 5382 5368 5355 5342 5330 5318 5307 5297 5287 5278 5270 5261 5252 5244 5238 5232 5228 5226 5225 5228 5235 5247 5262 5279 5299 5320 5344 5369 5396 5425 5455 5483 5510 5537 5560
5416 5402 5388 5374 5361 5348 5335 5323 5311 5300 5290 5282 5273 5265 5257 5248 5241 5234 5229 5225 5223 5223 5225 5231 5241 5256 5273 5292 5313 5335 5359 5386 5415 5444 5472 5499 5525 5550
5407 5394 5381 5367 5354 5342 5330 5318 5306 5295 5285 5277 5269 5261 5253 5245 5238 5231 5226 5222 5221 5220 5223 5228 5237 5250 5266 5285 5305 5327 5351 5377 5405 5434 5461 5488 5514 5538
5398 5386 5373 5360 5347 5336 5325 5314 5302 5291 5282 5274 5265 5257 5249 5242 5235 5229 5224 5221 5219 5219 5222 5226 5234 5245 5260 5278 5299 5320 5344 5369 5396 5424 5452 5478 5503 5526
5390 5377 5365 5353 5342 5331 5320 5309 5298 5287 5277 5269 5261 5254 5246 5238 5232 5226 5222 5219 5218 5219 5221 5225 5232 5242 5255 5273 5292 5313 5335 5360 5386 5414 5440 5466 5491 5514
5382 5370 5358 5347 5335 5324 5313 5303 5293 5284 5275 5267 5259 5251 5244 5236 5230 5224 5220 5218 5217 5219 5221 5225 5231 5240 5252 5268 5285 5305 5327 5351 5376 5403 5429 5455 5479 5503
5375 5363 5352 5340 5329 5318 5308 5298 5288 5279 5271 5263 5256 5248 5241 5234 5228 5223 5219 5217 5217 5218 5222 5226 5231 5239 5249 5263 5280 5299 5320 5343 5367 5393 5418 5444 5468 5493
5368 5357 5346 5335 5324 5314 5304 5293 5284 5275 5267 5259 5252 5246 5239 5232 5226 5221 5218 5216 5216 5218 5222 5226 5232 5239 5248 5260 5276 5294 5314 5336 5359 5383 5409 5434 5458 5483
5361 5350 5339 5329 5319 5309 5299 5290 5280 5271 5263 5256 5249 5243 5237 5231 5225 5220 5217 5216 5216 5219 5222 5227 5232 5240 5248 5259 5273 5289 5308 5328 5350 5374 5399 5424 5450 5473
5354 5343 5333 5323 5314 5304 5295 5286 5277 5268 5260 5253 5247 5241 5235 5229 5224 5220 5217 5215 5216 5219 5223 5227 5233 5240 5249 5258 5270 5285 5302 5322 5344 5367 5391 5416 5440 5464
5347 5337 5328 5318 5309 5300 5290 5282 5273 5265 5257 5250 5244 5238 5233 5228 5223 5219 5217 5216 5216 5219 5223 5227 5233 5240 5248 5257 5269 5283 5299 5318 5338 5360 5383 5407 5432 5457
5341 5332 5323 5314 5305 5296 5287 5278 5270 5262 5255 5248 5242 5236 5231 5227 5222 5219 5217 5216 5216 5219 5222 5227 5233 5240 5249 5258 5268 5281 5296 5313 5332 5353 5376 5401 5426 5450
5335 5326 5318 5309 5300 5292 5283 5275 5267 5260 5253 5246 5241 5235 5230 5226 5222 5219 5217 5216 5216 5218 5222 5227 5233 5240 5248 5257 5266 5277 5292 5307 5326 5347 5371 5396 5422 5446
5329 5321 5313 5304 5296 5288 5280 5272 5264 5257 5251 5245 5239 5234 5230 5226 5223 5219 5217 5216 5217 5219 5222 5227 5233 5239 5246 5254 5263 5275 5287 5303 5322 5343 5366 5391 5414 5436
5324 5316 5308 5300 5292 5284 5276 5268 5261 5255 5249 5243 5238 5234 5230 5226 5223 5220 5218 5217 5217 5219 5222 5227 5232 5238 5244 5252 5262 5273 5285 5300 5318 5338 5360 5382 5403 5423
5318 5311 5303 5295 5288 5280 5272 5265 5259 5252 5247 5242 5237 5233 5230 5227 5224 5221 5220 5219 5219 5220 5223 5227 5232 5237 5244 5252 5260 5270 5282 5296 5313 5331 5351 5373 5394 5419
5313 5306 5298 5291 5284 5276 5269 5262 5256 5250 5245 5240 5236 5233 5230 5227 5225 5223 5221 5220 5221 5222 5225 5228 5233 5238 5243 5250 5258 5267 5279 5292 5308 5327 5349 5371 5395 5419